Location: Unspecified
(0.0000°N, 0.0000°E)
Time: 16:17:51
(UTC+00:00)

Transit 2A Rocket - Pass Details

Date: 23 November 2019
Orbit: 594 x 909 km, 66.7° (Epoch: 13 December)

Event Time Altitude Azimuth Distance (km) Brightness Sun altitude
Rises 06:59:39 0° 341° (NNW) 2,995 7.7 17.2°
Reaches altitude 10° 07:01:51 10° 341° (NNW) 2,127 7.0 17.7°
Maximum altitude 07:06:42 88° 68° (ENE) 738 5.3 18.8°
Drops below altitude 10° 07:12:05 10° 160° (SSE) 2,347 8.3 20.1°
Sets 07:14:37 0° 160° (SSE) 3,329 8.9 20.6°
